Simultaneous Nadir Overpasses (SNOs) Predictions

Prediction of SNOs between NOAA-19 and TERRA Satellite Orbit:

Table of predicted SNOs for the next 14.0 days since TLE Epoch: 2/21/2015
Index Date (NOAA-19) Time (NOAA-19) Lat,Lon (NOAA-19) SZA (NOAA-19 ) Date (TERRA) Time (TERRA) Lat,Lon (TERRA) SZA (TERRA ) Distance(km) Time Diff (sec)
1 02/21/2015 12:41:53 72.33, -8.94 82.81 02/21/2015 12:43:00 72.24, -6.64 82.70 78.39 67
2 02/21/2015 13:32:33 -71.55, 159.85 98.00 02/21/2015 13:32:40 -71.58, 159.86 97.98 3.23 7
3 02/21/2015 14:23:26 70.80, -31.59 81.24 02/21/2015 14:22:18 70.89, -33.61 81.32 74.49 68
4 02/23/2015 18:16:05 -71.64, 88.85 98.72 02/23/2015 18:16:54 -71.66, 88.92 98.70 3.15 49
5 02/23/2015 19:07:10 71.53,-103.72 81.16 02/23/2015 19:06:22 71.50,-103.69 81.14 2.70 48
6 02/25/2015 22:59:50 -72.39, 16.53 98.77 02/25/2015 23:00:57 -72.29, 18.96 98.88 82.83 67
7 02/25/2015 23:50:41 71.59,-174.68 80.41 02/25/2015 23:50:35 71.60,-174.59 80.42 3.33 6
8 02/26/2015 00:41:24 -70.92, -6.21 100.27 02/26/2015 00:40:15 -70.95, -8.02 100.25 65.52 69
9 02/28/2015 04:34:11 71.62, 114.43 79.61 02/28/2015 04:34:49 71.62, 114.37 79.61 2.17 38
10 02/28/2015 05:25:06 -71.54, -78.16 100.48 02/28/2015 05:24:18 -71.56, -78.10 100.47 2.98 48
11 03/02/2015 09:17:47 71.96, 42.94 79.12 03/02/2015 09:18:58 71.87, 43.74 79.03 29.38 71
12 03/02/2015 10:08:37 -71.60,-149.11 101.26 03/02/2015 10:08:31 -71.60,-149.09 101.26 0.85 6
13 03/04/2015 14:52:08 -71.67, 139.92 102.03 03/04/2015 14:52:43 -71.66, 139.96 102.04 1.70 35
14 03/04/2015 15:43:11 71.55, -52.63 77.84 03/04/2015 15:42:10 71.55, -52.58 77.84 1.89 61
15 03/06/2015 19:35:41 -71.84, 68.74 102.70 03/06/2015 19:36:53 -71.80, 69.14 102.75 14.85 72
16 03/06/2015 20:26:40 71.60,-123.57 77.05 03/06/2015 20:26:21 71.58,-123.58 77.02 2.42 19




NCC Satellite Simultaneous Nadir Overpasses (SNOs) Prediction Service
